Location: Aubervilles
(48.9167°N, 2.3833°E)
Time: 12:31:09
(UTC+00:00)

Feng Yun 1-1 Rocket - Pass Details

Date: 03 February 2023
Orbit: 830 x 933 km, 99.1° (Epoch: 25 March)

Event Time Altitude Azimuth Distance (km) Brightness Sun altitude
Rises 18:29:27 0° 148° (SSE) 3,453 7.1 -16.4°
Reaches altitude 10° 18:31:53 10° 144° (SE) 2,504 6.4 -16.8°
Maximum altitude 18:37:16 55° 68° (ENE) 1,023 4.3 -17.7°
Drops below altitude 10° 18:42:35 10° 352° (N) 2,467 6.7 -18.5°
Sets 18:44:58 0° 348° (NNW) 3,397 7.5 -18.9°
